Vertical_Velocity
1 1 1 0 0 -0 0 1 1 -0 -1 -0 0 -0 0 -2 -1 -0 1 -0 -2 -2 -4 1 0 1 -0 -2 2 -1 -1 -2 -4 -1 -1 1 1 2 -3 2 -1 0 1 0 0
0 1 1 0 0 0 -0 -0 1 -0 -1 -0 0 -1 -0 -1 -2 -1 2 -1 -2 -2 -1 1 2 0 -0 -3 -1 -2 -2 -1 -1 1 -4 1 -1 0 -0 0 1 0 1 0 -0
-0 1 1 1 1 1 0 -1 1 -0 -0 -1 0 -1 -1 -1 -1 -3 2 0 -2 -1 -1 0 -1 -1 -1 -2 0 2 2 0 0 -1 -1 -0 2 -1 -2 1 -0 1 -0 -0 -0
-1 -0 1 0 1 1 1 -0 -1 0 0 -0 0 -1 -1 -0 -4 1 5 1 -1 0 -0 -0 1 0 -2 1 2 -3 -0 0 2 0 0 -1 0 -3 0 -0 -0 -0 -2 -3 -1
-0 -0 -1 1 0 1 0 -0 0 0 -0 -0 0 -1 -1 2 -4 -1 1 0 1 -1 -0 -0 1 2 -1 -1 3 -1 1 -1 1 0 -2 2 3 0 0 -1 -2 -1 -2 -2 -0
0 -0 -0 -0 1 -1 0 0 -0 0 0 0 -1 -0 0 1 -5 -2 -0 -1 -1 0 1 -1 -2 -2 3 1 -2 0 1 -2 3 -4 1 -1 3 -1 1 2 -1 -1 -0 -1 -1
-0 -0 -0 -0 -1 1 0 0 -0 0 -0 -0 -1 0 0 -8 -1 -2 -1 -1 0 -0 0 -1 -7 -4 -1 3 -1 2 -0 3 0 -1 -0 -1 -3 0 -1 1 1 -1 -1 -1 -0
2 0 0 0 -0 1 1 0 -0 -0 1 -1 0 -1 0 3 2 1 1 0 -1 1 2 1 -5 -5 0 3 1 -7 -1 3 -2 -1 -3 -5 1 2 -3 1 1 1 -1 -1 -0
-0 1 1 -0 0 -1 1 0 0 1 -0 1 1 -0 -4 3 1 -1 0 0 1 -2 2 1 -3 -6 -1 2 2 4 -0 -3 -2 0 3 1 2 2 1 -0 -0 1 2 -0 -1
1 -0 0 0 0 -2 1 -0 1 1 2 1 2 -0 3 -2 -4 -3 -2 -1 -0 -1 0 3 3 -4 -4 -0 2 4 -2 -1 2 4 0 -3 6 0 3 2 2 1 -0 -1 -2
-2 2 -1 -0 0 -2 0 -0 2 2 2 1 3 1 4 -1 -1 0 -2 -3 -2 -0 -0 1 -1 -2 4 -3 -1 1 -5 -2 0 0 1 2 -5 3 1 4 3 1 0 -0 -3
-1 -1 1 -0 -2 -2 -2 1 2 6 2 -1 -1 2 1 -1 1 -1 -1 -1 -0 0 -1 -0 1 3 -1 -1 -1 2 -6 -7 -2 -0 3 1 -3 3 -1 0 1 2 -3 1 0
1 1 1 -1 0 -4 1 -0 2 2 1 0 -2 -2 0 -1 1 2 3 5 -0 -0 -0 4 -2 -3 -1 0 -2 -5 -1 11 1 0 2 4 -6 -2 -0 3 -1 3 1 -3 -1
1 1 0 -0 -1 -2 -1 1 1 1 -4 3 4 0 2 1 -3 -2 0 2 1 3 1 -3 -5 -1 -1 -3 -2 2 4 -1 -0 -2 3 4 1 -1 -2 4 2 -2 -3 -2 -0
-1 2 -0 -1 3 -5 1 -0 2 -0 -5 -4 2 -3 -3 1 9 1 4 -2 4 2 -1 7 1 -1 -3 3 5 7 -1 1 -1 -2 -0 2 1 1 2 -0 5 4 -1 -1 1
4 -0 0 1 -1 3 -0 -1 0 -5 -3 -1 -5 -2 -1 3 -0 -4 1 -2 2 -2 -0 -3 -3 2 3 -1 0 -1 -0 -2 -2 0 -2 0 0 0 -2 -4 1 1 3 -1 1
3 2 4 7 -8 3 1 -1 -8 -27 1 -1 1 2 5 5 -2 -4 0 -5 -4 -5 -4 -3 -4 2 -3 -2 -1 -2 -1 0 -1 -4 -0 -1 -1 -0 -0 -3 0 1 6 1 -1
2 3 6 7 -2 -1 -1 -4 -25 5 11 2 -0 1 -0 10 -6 6 -1 -5 -2 -1 5 0 -8 -1 2 4 5 1 -2 -2 -2 2 -0 -3 2 -2 -0 3 -1 -3 2 -2 1
2 6 8 -11 3 -0 -6 -25 -0 15 17 6 4 4 2 -0 -1 -3 2 6 7 4 5 -3 -5 -3 2 3 2 2 0 1 -2 -2 -1 -2 0 -0 3 3 -1 -4 2 -2 1
4 6 5 4 3 4 -15 -5 1 8 9 0 1 4 2 7 -4 -7 1 5 1 1 6 2 2 2 6 4 2 -0 2 -4 -1 -2 -2 -3 0 0 -0 2 1 0 3 -3 -2
8 9 11 5 5 -10 -27 -2 7 10 4 3 2 0 3 -6 7 -0 9 9 2 1 5 2 5 -0 2 -2 0 -2 -1 -1 2 -1 -0 2 -2 1 2 1 0 1 0 -2 -2
10 11 8 8 -6 -13 -3 11 11 5 1 2 2 3 0 1 -1 -2 -3 11 7 5 -6 11 3 2 5 3 2 -1 4 0 -3 -4 -1 -1 0 5 -1 2 2 0 -2 -4 -5
5 6 5 -1 -7 4 6 5 5 1 5 6 3 -3 2 -1 1 0 3 8 1 -4 -8 13 -9 5 0 -4 -1 -1 2 4 -4 1 -1 -0 -0 1 2 3 1 -1 -1 -4 -5
3 1 5 -2 0 1 -3 -0 -6 8 -3 6 -2 1 -0 1 -1 -1 3 6 -0 1 5 1 5 -2 -2 19 4 -3 1 2 1 -2 3 2 -0 2 -1 -3 0 -2 -1 -3 -1
-2 -4 6 -7 -0 -3 0 5 3 1 -1 3 -4 -0 -0 5 -1 4 5 8 3 6 -0 -11 -5 -3 6 9 -1 3 5 -2 -1 1 -4 10 2 -0 -2 -0 3 1 -0 2 6
-2 -4 -3 2 0 8 2 1 3 17 -13 -4 -1 7 -1 -5 9 9 10 5 -10 6 6 -9 -0 -3 -0 4 3 -9 -3 -2 -2 2 -1 3 2 -3 1 4 1 -2 -2 -3 -1
5 2 1 -2 -1 2 2 2 5 11 0 5 12 -4 -9 17 5 9 2 0 -0 -2 -1 -3 1 1 1 3 3 -35 2 2 2 -2 0 -3 9 0 1 2 2 2 1 -2 -2
Height
5877 5878 5879 5880 5882 5883 5884 5886 5889 5891 5893 5894 5896 5898 5901 5904 5907 5909 5912 5913 5914 5913 5914 5916 5917 5917 5917 5916 5918 5917 5917 5914 5913 5914 5912 5911 5911 5910 5908 5909 5907 5905 5905 5903 5903
5876 5876 5877 5879 5880 5881 5883 5885 5887 5890 5892 5893 5896 5898 5901 5904 5907 5910 5913 5913 5914 5914 5916 5917 5918 5917 5918 5919 5920 5919 5918 5916 5915 5916 5915 5915 5916 5915 5913 5912 5911 5909 5908 5906 5905
5873 5875 5876 5877 5878 5880 5882 5884 5885 5888 5890 5892 5895 5897 5900 5903 5906 5910 5914 5914 5915 5916 5917 5918 5918 5919 5920 5922 5922 5920 5919 5919 5920 5920 5919 5919 5919 5918 5916 5915 5915 5913 5912 5910 5909
5870 5872 5873 5875 5876 5878 5880 5882 5884 5886 5889 5891 5893 5896 5899 5902 5905 5908 5913 5914 5915 5917 5918 5920 5921 5921 5923 5923 5923 5923 5922 5921 5923 5924 5922 5922 5922 5920 5920 5918 5917 5916 5915 5914 5912
5868 5869 5870 5872 5874 5875 5877 5879 5882 5884 5887 5889 5891 5894 5897 5901 5903 5906 5910 5912 5915 5918 5919 5921 5922 5924 5925 5925 5926 5925 5925 5925 5924 5926 5924 5926 5926 5924 5922 5920 5920 5918 5918 5918 5916
5863 5865 5867 5869 5870 5872 5874 5876 5879 5881 5884 5887 5889 5892 5896 5899 5900 5904 5907 5910 5913 5917 5920 5922 5923 5926 5927 5927 5927 5927 5927 5927 5928 5928 5927 5928 5929 5927 5925 5923 5922 5921 5921 5921 5920
5858 5861 5863 5865 5867 5869 5871 5873 5876 5878 5881 5885 5888 5890 5894 5897 5900 5903 5906 5909 5913 5916 5919 5922 5924 5926 5927 5929 5928 5928 5929 5931 5933 5931 5932 5930 5933 5931 5929 5927 5926 5926 5925 5925 5924
5852 5855 5858 5861 5863 5864 5867 5869 5872 5875 5878 5881 5885 5889 5891 5896 5900 5902 5905 5908 5911 5914 5918 5921 5923 5926 5929 5930 5930 5930 5930 5932 5933 5936 5936 5935 5935 5935 5934 5932 5931 5931 5930 5929 5928
5847 5849 5852 5855 5858 5859 5862 5865 5868 5871 5875 5878 5883 5886 5889 5894 5897 5900 5903 5906 5909 5911 5916 5919 5922 5926 5928 5930 5931 5930 5931 5932 5934 5935 5937 5938 5937 5937 5936 5937 5935 5934 5933 5931 5931
5839 5842 5845 5848 5851 5853 5857 5860 5863 5868 5872 5876 5879 5884 5888 5890 5892 5896 5899 5903 5906 5909 5913 5917 5920 5924 5926 5929 5932 5932 5932 5934 5936 5939 5939 5938 5940 5939 5940 5940 5938 5937 5936 5934 5933
5831 5834 5837 5840 5844 5846 5851 5855 5861 5865 5868 5872 5876 5879 5885 5887 5889 5892 5896 5900 5903 5907 5910 5915 5918 5922 5927 5927 5930 5931 5933 5934 5937 5938 5940 5940 5939 5940 5942 5942 5942 5939 5938 5936 5935
5824 5827 5829 5832 5835 5838 5843 5849 5854 5859 5861 5865 5869 5874 5879 5882 5887 5890 5894 5898 5901 5905 5909 5913 5917 5921 5923 5926 5928 5931 5933 5935 5937 5938 5941 5942 5941 5941 5942 5944 5944 5943 5939 5937 5936
5816 5819 5821 5823 5826 5829 5835 5842 5847 5851 5855 5859 5863 5868 5874 5877 5883 5889 5894 5897 5900 5903 5907 5913 5915 5916 5921 5923 5927 5930 5932 5937 5939 5939 5940 5943 5942 5942 5943 5945 5945 5944 5942 5939 5938
5806 5810 5812 5814 5819 5821 5825 5833 5840 5843 5847 5853 5859 5864 5870 5874 5878 5883 5889 5894 5897 5901 5904 5908 5911 5915 5919 5921 5925 5930 5933 5935 5937 5939 5940 5943 5944 5943 5944 5946 5946 5945 5944 5941 5938
5794 5798 5802 5805 5809 5812 5817 5823 5830 5834 5839 5845 5850 5853 5861 5868 5877 5880 5886 5889 5895 5898 5902 5907 5909 5913 5916 5921 5926 5930 5930 5934 5935 5936 5939 5940 5943 5943 5944 5946 5947 5947 5945 5943 5940
5779 5785 5790 5795 5798 5802 5806 5812 5820 5825 5830 5836 5841 5847 5854 5862 5866 5871 5878 5884 5888 5891 5897 5902 5906 5911 5916 5918 5923 5925 5928 5931 5932 5934 5936 5937 5940 5942 5943 5945 5946 5946 5947 5945 5942
5762 5769 5776 5782 5786 5791 5795 5801 5808 5809 5825 5830 5835 5842 5850 5856 5860 5864 5870 5875 5879 5884 5890 5896 5901 5907 5912 5914 5919 5922 5925 5928 5930 5931 5934 5935 5938 5940 5943 5944 5944 5945 5946 5945 5943
5743 5752 5759 5767 5772 5778 5783 5788 5792 5805 5818 5822 5828 5834 5841 5849 5852 5860 5865 5869 5876 5883 5890 5892 5897 5901 5908 5912 5918 5919 5922 5925 5925 5930 5932 5934 5937 5939 5942 5943 5943 5942 5943 5943 5942
5721 5732 5740 5749 5756 5763 5770 5773 5783 5796 5810 5813 5818 5825 5833 5837 5844 5851 5858 5866 5874 5882 5887 5890 5894 5899 5905 5910 5914 5915 5918 5923 5924 5926 5928 5931 5934 5936 5938 5941 5941 5942 5943 5941 5940
5696 5709 5720 5731 5738 5746 5753 5763 5772 5786 5796 5802 5808 5816 5824 5831 5835 5841 5850 5859 5866 5874 5880 5887 5892 5896 5902 5904 5907 5909 5915 5917 5920 5922 5924 5927 5931 5933 5935 5937 5938 5939 5939 5939 5938
5671 5684 5698 5708 5719 5727 5739 5750 5761 5774 5786 5792 5798 5805 5813 5821 5829 5835 5844 5854 5861 5868 5873 5880 5887 5891 5895 5895 5902 5904 5907 5911 5916 5918 5920 5923 5927 5930 5932 5933 5934 5936 5936 5936 5935
5644 5659 5672 5686 5698 5712 5725 5735 5748 5761 5773 5781 5786 5794 5803 5812 5819 5827 5835 5847 5854 5861 5865 5873 5878 5884 5889 5892 5897 5899 5901 5906 5908 5914 5915 5918 5924 5926 5926 5929 5931 5931 5932 5932 5931
5618 5632 5647 5663 5678 5694 5708 5720 5731 5747 5761 5769 5776 5784 5794 5802 5811 5818 5828 5837 5843 5850 5855 5864 5867 5875 5880 5885 5887 5890 5896 5899 5903 5907 5907 5912 5917 5919 5921 5925 5927 5928 5926 5925 5926
5599 5610 5625 5642 5658 5673 5687 5701 5713 5730 5747 5754 5766 5775 5784 5793 5801 5809 5818 5827 5835 5842 5848 5853 5858 5867 5873 5882 5885 5887 5892 5895 5897 5900 5903 5905 5910 5912 5914 5917 5919 5920 5920 5920 5920
5584 5592 5605 5622 5636 5652 5669 5685 5697 5713 5729 5741 5754 5764 5774 5784 5792 5801 5810 5818 5826 5833 5837 5843 5848 5857 5866 5872 5876 5881 5886 5890 5892 5895 5897 5903 5903 5906 5908 5912 5912 5914 5915 5916 5916
5572 5580 5589 5604 5619 5633 5649 5665 5681 5696 5714 5730 5742 5753 5762 5775 5787 5795 5802 5808 5813 5822 5829 5834 5842 5849 5854 5862 5868 5871 5877 5882 5885 5888 5891 5896 5898 5900 5903 5905 5908 5909 5911 5912 5912
5561 5568 5577 5587 5602 5617 5631 5647 5663 5682 5701 5715 5727 5741 5750 5764 5773 5782 5789 5796 5803 5810 5818 5826 5833 5839 5846 5852 5858 5858 5867 5874 5878 5881 5886 5888 5895 5896 5897 5900 5903 5905 5906 5906 5906